Location: Unspecified
(41.5000°N, 0.0000°E)
Time: 16:35:58
(UTC+00:00)

Vanguard 3 - Pass Details

Date: 22 June 2019
Orbit: 507 x 3264 km, 33.4° (Epoch: 21 July)

Event Time Altitude Azimuth Distance (km) Brightness Sun altitude
Rises 12:00:08 0° 244° (WSW) 6,206 11.8 71.9°
Reaches altitude 10° 12:05:05 10° 239° (WSW) 4,758 11.4 71.9°
Maximum altitude 12:16:20 44° 173° (S) 1,901 10.3 71.7°
Drops below altitude 10° 12:22:51 10° 103° (ESE) 2,793 10.0 71.4°
Sets 12:25:02 0° 96° (E) 3,489 10.4 71.3°
